Location: Unspecified
(54.1780°N, 0.0000°E)
Time: 09:56:56
(UTC+00:00)

Altair - Pass Details

Date: 26 June 2019
Orbit: 1501 x 1683 km, 47.2° (Epoch: 19 July)

Event Time Altitude Azimuth Distance (km) Brightness Sun altitude
Rises 01:26:20 0° 284° (WNW) 4,833 10.1 -10.4°
Reaches altitude 10° 01:30:05 10° 273° (W) 3,872 9.4 -10.2°
Maximum altitude 01:37:39 26° 223° (SW) 2,857 8.4 -9.8°
Drops below altitude 10° 01:45:21 10° 172° (S) 3,933 9.1 -9.4°
Sets 01:49:14 0° 161° (SSE) 4,924 9.7 -9.1°
